QPF
0.03 0.03 0.03 0.03 0.03 0.02 0.02 0.02 0.02 0.02 0.02 0.01 0.01 0.01 0.01 0.01 0.01 0.01 0.01 0.01 0.01 0.01 0.01 0.00 0.00 0.00 0.00 0.00 0.00 0.00 0.00 0.00 0.00 0.01 0.01 0.01 0.01 0.01
0.03 0.03 0.02 0.02 0.01 0.01 0.01 0.01 0.01 0.01 0.01 0.01 0.01 0.01 0.01 0.00 0.00 0.00 0.00 0.00 0.00 0.00 0.00 0.00 0.00 0.00 0.00 0.00 0.00 0.00 0.00 0.00 0.00 0.01 0.01 0.01 0.01 0.01
0.01 0.01 0.01 0.01 0.01 0.01 0.01 0.01 0.01 0.01 0.01 0.01 0.00 0.00 0.00 0.01 0.00 0.01 0.00 0.01 0.00 0.00 0.01 0.00 0.00 0.00 0.00 0.00 0.00 0.00 0.00 0.00 0.00 0.00 0.00 0.01 0.01 0.01
0.00 0.00 0.00 0.01 0.01 0.01 0.01 0.01 0.01 0.01 0.02 0.01 0.01 0.01 0.01 0.01 0.01 0.02 0.01 0.01 0.01 0.00 0.00 0.00 0.00 0.00 0.00 0.00 0.00 0.00 0.00 0.00 0.00 0.00 0.00 0.00 0.00 0.01
0.00 0.00 0.00 0.00 0.01 0.01 0.01 0.01 0.01 0.01 0.02 0.02 0.02 0.02 0.02 0.02 0.02 0.02 0.01 0.02 0.01 0.00 0.00 0.00 0.00 0.00 0.00 0.00 0.00 0.00 0.00 0.00 0.00 0.00 0.00 0.00 0.00 0.00
0.00 0.00 0.00 0.00 0.01 0.01 0.01 0.01 0.01 0.01 0.02 0.02 0.02 0.02 0.02 0.02 0.03 0.03 0.02 0.03 0.02 0.01 0.01 0.00 0.00 0.01 0.01 0.01 0.00 0.00 0.00 0.00 0.00 0.00 0.00 0.00 0.00 0.00
0.01 0.00 0.00 0.00 0.00 0.00 0.00 0.00 0.01 0.01 0.01 0.02 0.02 0.03 0.03 0.04 0.04 0.04 0.03 0.03 0.02 0.02 0.02 0.01 0.02 0.03 0.03 0.03 0.02 0.01 0.01 0.00 0.00 0.00 0.00 0.00 0.00 0.00
0.01 0.01 0.01 0.00 0.00 0.00 0.00 0.00 0.00 0.00 0.01 0.02 0.03 0.04 0.04 0.06 0.06 0.04 0.05 0.04 0.03 0.03 0.03 0.02 0.02 0.03 0.04 0.04 0.02 0.01 0.00 0.00 0.00 0.00 0.00 0.00 0.00 0.00
0.01 0.01 0.01 0.01 0.01 0.01 0.01 0.01 0.02 0.02 0.01 0.01 0.02 0.04 0.05 0.06 0.05 0.03 0.04 0.04 0.03 0.03 0.04 0.02 0.03 0.03 0.02 0.01 0.00 0.00 0.00 0.00 0.00 0.00 0.00 0.00 0.00 0.00
0.02 0.01 0.02 0.02 0.01 0.00 0.00 0.01 0.04 0.06 0.04 0.03 0.04 0.04 0.03 0.02 0.02 0.02 0.02 0.02 0.03 0.04 0.05 0.03 0.03 0.03 0.01 0.03 0.01 0.00 0.00 0.00 0.00 0.00 0.00 0.00 0.00 0.00
0.02 0.01 0.01 0.01 0.00 0.00 0.00 0.02 0.04 0.05 0.03 0.01 0.01 0.01 0.00 0.00 0.00 0.00 0.02 0.04 0.04 0.04 0.05 0.03 0.03 0.02 0.01 0.02 0.02 0.01 0.00 0.00 0.00 0.00 0.00 0.00 0.00 0.00
0.03 0.03 0.01 0.00 0.00 0.00 0.00 0.01 0.03 0.02 0.02 0.03 0.05 0.06 0.05 0.04 0.01 0.01 0.04 0.05 0.05 0.04 0.04 0.03 0.03 0.04 0.02 0.01 0.03 0.04 0.04 0.03 0.01 0.01 0.00 0.01 0.00 0.01
0.04 0.04 0.03 0.00 0.00 0.00 0.00 0.01 0.01 0.00 0.01 0.04 0.07 0.08 0.08 0.07 0.06 0.05 0.06 0.06 0.05 0.05 0.04 0.04 0.04 0.05 0.05 0.04 0.03 0.04 0.05 0.05 0.05 0.05 0.04 0.02 0.01 0.01
0.04 0.02 0.01 0.00 0.00 0.00 0.00 0.00 0.00 0.00 0.04 0.07 0.08 0.08 0.06 0.06 0.05 0.04 0.05 0.06 0.07 0.06 0.06 0.06 0.06 0.06 0.06 0.06 0.05 0.04 0.04 0.04 0.05 0.05 0.07 0.05 0.04 0.02
0.02 0.00 0.00 0.00 0.00 0.02 0.01 0.00 0.01 0.04 0.07 0.07 0.07 0.08 0.07 0.06 0.05 0.05 0.05 0.06 0.06 0.05 0.04 0.05 0.07 0.06 0.07 0.07 0.06 0.04 0.03 0.03 0.04 0.04 0.06 0.07 0.06 0.05
0.01 0.01 0.02 0.02 0.02 0.02 0.03 0.04 0.05 0.05 0.05 0.06 0.07 0.07 0.06 0.06 0.06 0.05 0.05 0.06 0.07 0.07 0.05 0.04 0.06 0.06 0.05 0.05 0.04 0.03 0.03 0.04 0.04 0.04 0.05 0.06 0.05 0.04
0.00 0.03 0.07 0.07 0.07 0.07 0.07 0.06 0.06 0.05 0.05 0.07 0.07 0.07 0.06 0.06 0.06 0.06 0.07 0.07 0.07 0.07 0.05 0.04 0.04 0.04 0.03 0.02 0.02 0.02 0.02 0.03 0.03 0.04 0.04 0.05 0.05 0.04
0.01 0.04 0.06 0.05 0.05 0.05 0.05 0.05 0.04 0.04 0.04 0.06 0.07 0.07 0.07 0.07 0.06 0.05 0.06 0.07 0.08 0.07 0.05 0.03 0.03 0.03 0.04 0.03 0.01 0.01 0.02 0.02 0.03 0.04 0.04 0.04 0.04 0.04
0.02 0.04 0.04 0.04 0.04 0.04 0.04 0.04 0.04 0.04 0.04 0.05 0.06 0.06 0.05 0.06 0.06 0.06 0.05 0.06 0.06 0.06 0.05 0.03 0.03 0.03 0.04 0.05 0.03 0.02 0.02 0.02 0.02 0.03 0.04 0.05 0.04 0.03
0.03 0.03 0.03 0.03 0.03 0.03 0.03 0.03 0.03 0.03 0.04 0.05 0.05 0.04 0.04 0.04 0.05 0.05 0.05 0.04 0.04 0.05 0.04 0.03 0.01 0.02 0.04 0.06 0.05 0.03 0.01 0.01 0.01 0.01 0.03 0.04 0.03 0.03
0.01 0.02 0.02 0.02 0.03 0.02 0.02 0.02 0.03 0.03 0.02 0.02 0.03 0.03 0.03 0.03 0.04 0.03 0.03 0.01 0.02 0.04 0.04 0.04 0.02 0.01 0.03 0.05 0.05 0.04 0.02 0.01 0.01 0.00 0.01 0.01 0.01 0.01
0.01 0.01 0.02 0.02 0.01 0.01 0.01 0.01 0.02 0.02 0.01 0.01 0.02 0.02 0.03 0.03 0.03 0.03 0.02 0.02 0.02 0.02 0.02 0.03 0.02 0.02 0.02 0.03 0.03 0.03 0.03 0.02 0.01 0.00 0.00 0.00 0.01 0.02
0.01 0.01 0.01 0.01 0.00 0.00 0.00 0.00 0.01 0.01 0.00 0.01 0.01 0.02 0.02 0.02 0.02 0.01 0.01 0.01 0.01 0.01 0.01 0.02 0.01 0.01 0.01 0.02 0.02 0.02 0.02 0.02 0.02 0.01 0.01 0.01 0.01 0.02
MSLP
1022.41 1022.38 1022.34 1022.26 1022.11 1021.87 1021.54 1021.14 1020.67 1020.17 1019.69 1019.25 1018.89 1018.64 1018.49 1018.45 1018.49 1018.59 1018.72 1018.86 1018.99 1019.08 1019.13 1019.14 1019.12 1019.08 1019.03 1018.97 1018.91 1018.84 1018.77 1018.69 1018.59 1018.47 1018.34 1018.21 1018.09 1017.98
1022.62 1022.55 1022.47 1022.35 1022.18 1021.93 1021.60 1021.20 1020.74 1020.24 1019.75 1019.30 1018.91 1018.61 1018.40 1018.28 1018.24 1018.25 1018.30 1018.35 1018.40 1018.42 1018.42 1018.41 1018.38 1018.34 1018.32 1018.30 1018.29 1018.28 1018.27 1018.24 1018.19 1018.11 1018.00 1017.87 1017.74 1017.60
1022.66 1022.55 1022.43 1022.29 1022.12 1021.88 1021.58 1021.22 1020.81 1020.36 1019.90 1019.46 1019.06 1018.73 1018.46 1018.27 1018.13 1018.04 1017.98 1017.93 1017.88 1017.82 1017.75 1017.68 1017.61 1017.57 1017.54 1017.55 1017.57 1017.61 1017.65 1017.68 1017.68 1017.65 1017.58 1017.47 1017.34 1017.19
1022.63 1022.47 1022.32 1022.17 1022.00 1021.80 1021.56 1021.26 1020.92 1020.54 1020.14 1019.73 1019.34 1018.99 1018.67 1018.40 1018.18 1017.98 1017.81 1017.64 1017.48 1017.32 1017.17 1017.03 1016.91 1016.83 1016.78 1016.78 1016.82 1016.88 1016.96 1017.03 1017.08 1017.09 1017.05 1016.98 1016.87 1016.73
1022.61 1022.40 1022.22 1022.06 1021.91 1021.75 1021.57 1021.35 1021.08 1020.78 1020.44 1020.08 1019.70 1019.33 1018.98 1018.64 1018.33 1018.04 1017.76 1017.49 1017.23 1016.97 1016.73 1016.51 1016.33 1016.19 1016.10 1016.07 1016.09 1016.15 1016.23 1016.32 1016.40 1016.44 1016.45 1016.40 1016.31 1016.18
1022.66 1022.41 1022.20 1022.04 1021.90 1021.77 1021.64 1021.48 1021.28 1021.04 1020.75 1020.42 1020.06 1019.68 1019.29 1018.90 1018.52 1018.14 1017.78 1017.43 1017.08 1016.75 1016.43 1016.14 1015.89 1015.68 1015.53 1015.44 1015.42 1015.45 1015.51 1015.59 1015.67 1015.74 1015.77 1015.75 1015.68 1015.57
1022.79 1022.52 1022.29 1022.11 1021.97 1021.86 1021.76 1021.64 1021.48 1021.27 1021.00 1020.69 1020.32 1019.92 1019.50 1019.07 1018.64 1018.22 1017.80 1017.39 1016.99 1016.61 1016.24 1015.89 1015.57 1015.30 1015.09 1014.93 1014.84 1014.81 1014.83 1014.88 1014.94 1015.00 1015.04 1015.04 1014.99 1014.90
1023.00 1022.70 1022.46 1022.27 1022.12 1022.01 1021.90 1021.78 1021.61 1021.40 1021.13 1020.80 1020.42 1020.00 1019.55 1019.10 1018.64 1018.19 1017.75 1017.32 1016.90 1016.49 1016.09 1015.71 1015.35 1015.03 1014.75 1014.52 1014.36 1014.26 1014.21 1014.20 1014.23 1014.26 1014.29 1014.29 1014.25 1014.17
1023.23 1022.93 1022.68 1022.47 1022.30 1022.16 1022.01 1021.85 1021.65 1021.40 1021.10 1020.73 1020.32 1019.87 1019.40 1018.93 1018.46 1018.01 1017.58 1017.16 1016.75 1016.35 1015.96 1015.56 1015.18 1014.82 1014.49 1014.19 1013.95 1013.77 1013.65 1013.57 1013.54 1013.53 1013.53 1013.51 1013.47 1013.40
1023.45 1023.16 1022.91 1022.67 1022.46 1022.27 1022.06 1021.83 1021.57 1021.26 1020.89 1020.48 1020.02 1019.55 1019.07 1018.59 1018.13 1017.70 1017.29 1016.91 1016.53 1016.16 1015.78 1015.40 1015.02 1014.63 1014.26 1013.92 1013.61 1013.35 1013.15 1013.00 1012.90 1012.83 1012.78 1012.74 1012.69 1012.61
1023.64 1023.36 1023.09 1022.82 1022.57 1022.30 1022.02 1021.71 1021.36 1020.97 1020.54 1020.08 1019.59 1019.09 1018.60 1018.13 1017.69 1017.29 1016.92 1016.57 1016.24 1015.91 1015.57 1015.21 1014.83 1014.44 1014.05 1013.67 1013.31 1012.98 1012.71 1012.49 1012.31 1012.18 1012.08 1012.00 1011.92 1011.84
1023.79 1023.51 1023.21 1022.91 1022.59 1022.25 1021.89 1021.49 1021.06 1020.60 1020.11 1019.60 1019.08 1018.57 1018.08 1017.63 1017.22 1016.84 1016.51 1016.20 1015.91 1015.61 1015.31 1014.98 1014.62 1014.24 1013.84 1013.44 1013.05 1012.68 1012.35 1012.06 1011.81 1011.62 1011.46 1011.33 1011.22 1011.12
1023.90 1023.60 1023.26 1022.90 1022.52 1022.11 1021.66 1021.20 1020.70 1020.18 1019.65 1019.11 1018.58 1018.07 1017.59 1017.16 1016.77 1016.42 1016.12 1015.84 1015.57 1015.31 1015.03 1014.72 1014.39 1014.03 1013.65 1013.25 1012.84 1012.45 1012.08 1011.74 1011.44 1011.19 1010.97 1010.79 1010.64 1010.51
1023.98 1023.63 1023.24 1022.82 1022.37 1021.89 1021.38 1020.85 1020.31 1019.76 1019.20 1018.66 1018.14 1017.64 1017.18 1016.77 1016.40 1016.07 1015.78 1015.51 1015.26 1015.01 1014.75 1014.47 1014.17 1013.84 1013.48 1013.11 1012.72 1012.33 1011.95 1011.58 1011.24 1010.93 1010.66 1010.43 1010.23 1010.07
1024.00 1023.59 1023.14 1022.66 1022.15 1021.61 1021.06 1020.50 1019.93 1019.38 1018.83 1018.30 1017.79 1017.32 1016.88 1016.48 1016.12 1015.80 1015.50 1015.23 1014.98 1014.74 1014.49 1014.24 1013.97 1013.68 1013.37 1013.05 1012.70 1012.33 1011.96 1011.60 1011.24 1010.89 1010.58 1010.29 1010.04 1009.83
1023.97 1023.49 1022.98 1022.44 1021.88 1021.31 1020.74 1020.17 1019.61 1019.07 1018.54 1018.04 1017.56 1017.12 1016.70 1016.31 1015.95 1015.61 1015.30 1015.01 1014.75 1014.50 1014.26 1014.04 1013.81 1013.57 1013.33 1013.07 1012.78 1012.47 1012.14 1011.80 1011.44 1011.08 1010.72 1010.39 1010.09 1009.82
1023.85 1023.31 1022.76 1022.18 1021.60 1021.03 1020.46 1019.91 1019.37 1018.86 1018.37 1017.91 1017.46 1017.03 1016.62 1016.22 1015.85 1015.49 1015.15 1014.84 1014.55 1014.29 1014.07 1013.86 1013.68 1013.51 1013.34 1013.16 1012.95 1012.72 1012.46 1012.15 1011.82 1011.46 1011.09 1010.72 1010.37 1010.05
1023.67 1023.09 1022.52 1021.94 1021.37 1020.82 1020.28 1019.77 1019.27 1018.80 1018.35 1017.91 1017.48 1017.06 1016.64 1016.22 1015.82 1015.42 1015.05 1014.70 1014.39 1014.12 1013.90 1013.72 1013.59 1013.48 1013.39 1013.29 1013.18 1013.04 1012.85 1012.61 1012.31 1011.98 1011.61 1011.22 1010.84 1010.48
1023.44 1022.87 1022.31 1021.77 1021.24 1020.74 1020.25 1019.79 1019.34 1018.91 1018.48 1018.06 1017.63 1017.19 1016.75 1016.30 1015.85 1015.41 1014.99 1014.60 1014.26 1013.98 1013.76 1013.61 1013.51 1013.46 1013.44 1013.43 1013.40 1013.34 1013.23 1013.06 1012.83 1012.53 1012.19 1011.81 1011.42 1011.04
1023.23 1022.71 1022.21 1021.73 1021.27 1020.83 1020.42 1020.01 1019.61 1019.20 1018.78 1018.35 1017.90 1017.43 1016.94 1016.44 1015.93 1015.44 1014.97 1014.55 1014.18 1013.88 1013.66 1013.52 1013.45 1013.44 1013.47 1013.52 1013.56 1013.57 1013.53 1013.43 1013.26 1013.03 1012.73 1012.39 1012.02 1011.64
1023.10 1022.66 1022.25 1021.86 1021.49 1021.14 1020.79 1020.44 1020.06 1019.67 1019.24 1018.78 1018.29 1017.76 1017.22 1016.65 1016.09 1015.54 1015.02 1014.56 1014.16 1013.85 1013.61 1013.47 1013.41 1013.41 1013.46 1013.54 1013.62 1013.68 1013.69 1013.65 1013.54 1013.37 1013.14 1012.85 1012.54 1012.21
1023.10 1022.76 1022.46 1022.18 1021.91 1021.64 1021.35 1021.04 1020.68 1020.28 1019.82 1019.31 1018.76 1018.17 1017.55 1016.92 1016.30 1015.70 1015.14 1014.64 1014.22 1013.88 1013.63 1013.47 1013.39 1013.38 1013.42 1013.49 1013.57 1013.64 1013.68 1013.68 1013.62 1013.51 1013.35 1013.15 1012.92 1012.66
1023.25 1023.03 1022.83 1022.66 1022.48 1022.28 1022.04 1021.74 1021.38 1020.95 1020.45 1019.89 1019.27 1018.60 1017.92 1017.23 1016.56 1015.92 1015.33 1014.80 1014.36 1014.00 1013.73 1013.53 1013.42 1013.37 1013.37 1013.40 1013.45 1013.50 1013.53 1013.54 1013.52 1013.46 1013.37 1013.25 1013.11 1012.95
Thickness
5593 5590 5587 5586 5583 5581 5578 5574 5570 5566 5564 5562 5558 5555 5551 5546 5542 5539 5535 5532 5529 5527 5525 5522 5518 5514 5512 5510 5508 5507 5506 5504 5503 5502 5502 5502 5503 5503
5580 5577 5574 5571 5568 5565 5562 5559 5555 5550 5545 5543 5539 5536 5532 5529 5526 5522 5519 5517 5515 5513 5511 5508 5505 5502 5499 5497 5495 5493 5491 5490 5489 5488 5488 5488 5488 5489
5566 5563 5560 5558 5554 5550 5547 5543 5539 5534 5528 5525 5522 5519 5516 5513 5510 5507 5504 5503 5501 5500 5499 5496 5493 5490 5488 5485 5483 5481 5480 5478 5477 5476 5475 5475 5475 5476
5553 5550 5546 5543 5539 5535 5531 5527 5523 5518 5513 5509 5506 5503 5501 5499 5497 5493 5492 5491 5489 5489 5488 5487 5484 5481 5479 5476 5474 5472 5470 5468 5467 5466 5465 5465 5464 5464
5540 5536 5533 5529 5524 5520 5516 5512 5507 5504 5499 5495 5492 5490 5487 5486 5483 5482 5480 5479 5479 5480 5480 5479 5477 5474 5472 5470 5467 5465 5463 5460 5459 5457 5456 5455 5454 5453
5528 5525 5521 5517 5511 5506 5502 5498 5493 5489 5486 5483 5481 5478 5476 5474 5472 5470 5470 5470 5470 5471 5471 5471 5470 5469 5468 5466 5463 5460 5457 5455 5452 5450 5449 5447 5445 5445
5518 5514 5511 5505 5499 5494 5489 5484 5480 5477 5474 5472 5470 5468 5466 5464 5462 5461 5461 5462 5463 5465 5464 5464 5465 5464 5463 5462 5459 5457 5453 5450 5447 5445 5443 5441 5439 5438
5506 5503 5500 5495 5490 5485 5480 5475 5472 5468 5465 5462 5461 5460 5459 5457 5456 5456 5455 5455 5456 5459 5458 5459 5460 5459 5459 5458 5456 5453 5449 5446 5443 5441 5438 5436 5434 5432
5497 5494 5491 5487 5481 5476 5473 5471 5469 5466 5462 5458 5456 5455 5455 5454 5452 5451 5450 5450 5450 5453 5454 5454 5456 5455 5456 5455 5452 5449 5446 5443 5440 5437 5434 5431 5429 5427
5490 5486 5483 5478 5473 5468 5467 5467 5465 5464 5462 5460 5457 5455 5455 5453 5450 5448 5447 5448 5450 5452 5452 5450 5452 5452 5454 5453 5450 5447 5443 5440 5437 5434 5431 5428 5425 5423
5483 5479 5476 5472 5466 5463 5462 5462 5461 5461 5461 5459 5457 5456 5455 5453 5450 5446 5446 5446 5447 5449 5450 5448 5450 5450 5451 5450 5448 5444 5441 5438 5435 5432 5428 5425 5422 5419
5476 5473 5469 5466 5462 5460 5458 5457 5458 5458 5457 5458 5458 5458 5456 5455 5453 5449 5446 5445 5445 5446 5449 5447 5447 5446 5445 5446 5445 5442 5439 5437 5434 5430 5427 5423 5419 5416
5469 5468 5466 5462 5460 5458 5455 5455 5455 5453 5454 5456 5457 5458 5458 5456 5455 5453 5450 5447 5446 5446 5447 5446 5444 5443 5440 5440 5442 5440 5438 5435 5432 5428 5425 5421 5417 5413
5463 5463 5462 5460 5459 5458 5457 5457 5455 5453 5455 5456 5456 5457 5457 5456 5456 5455 5454 5452 5451 5449 5449 5447 5443 5441 5439 5437 5437 5437 5436 5433 5429 5426 5423 5419 5416 5412
5459 5459 5459 5460 5459 5459 5459 5457 5455 5455 5455 5455 5455 5455 5456 5456 5457 5456 5456 5455 5454 5453 5452 5449 5446 5443 5439 5436 5434 5434 5433 5431 5427 5424 5421 5417 5413 5410
5455 5456 5458 5460 5459 5458 5458 5458 5457 5456 5455 5455 5455 5456 5457 5457 5457 5457 5456 5455 5455 5454 5453 5451 5448 5444 5439 5437 5434 5432 5430 5427 5425 5423 5420 5416 5412 5408
5449 5453 5458 5460 5460 5459 5458 5458 5457 5456 5455 5455 5455 5455 5456 5456 5457 5457 5456 5455 5454 5453 5452 5451 5449 5445 5441 5436 5433 5431 5429 5426 5424 5421 5419 5415 5411 5407
5448 5453 5456 5457 5456 5456 5455 5455 5455 5455 5454 5454 5454 5454 5455 5455 5456 5457 5457 5455 5454 5453 5452 5451 5449 5445 5441 5437 5431 5429 5428 5426 5424 5421 5418 5415 5411 5408
5451 5454 5454 5454 5453 5453 5453 5452 5452 5452 5452 5452 5452 5453 5454 5454 5455 5456 5456 5455 5454 5454 5453 5452 5450 5446 5441 5436 5434 5429 5426 5425 5423 5421 5419 5415 5411 5408
5454 5453 5452 5451 5450 5450 5450 5449 5449 5450 5450 5450 5451 5451 5452 5453 5454 5455 5455 5455 5455 5454 5454 5453 5451 5448 5443 5439 5436 5432 5428 5425 5423 5421 5419 5417 5413 5410
5451 5450 5449 5449 5448 5448 5448 5447 5447 5447 5446 5447 5448 5449 5450 5452 5453 5454 5455 5455 5455 5456 5455 5454 5454 5452 5449 5445 5441 5436 5431 5428 5425 5421 5420 5419 5416 5412
5447 5446 5447 5447 5446 5445 5445 5445 5444 5443 5443 5443 5444 5446 5448 5451 5452 5454 5455 5455 5455 5456 5457 5457 5457 5456 5454 5450 5445 5442 5437 5433 5429 5425 5421 5419 5415 5412
5445 5444 5444 5444 5443 5442 5442 5441 5440 5439 5438 5438 5440 5443 5446 5450 5452 5454 5455 5456 5456 5456 5457 5458 5459 5458 5457 5454 5451 5448 5445 5440 5435 5430 5426 5422 5418 5414